Terminal Aerodrome Forecast
Issued by NWS San Angelo, TX

Home | Current Version | Previous Version | Text Only | Print | Product List | Glossary On
Versions: 1 2 3 4 5 6 7 8 9 10 11 12 13
000
FTUS44 KSJT 040520
TAFABI
TAF
KABI 040520Z 0406/0506 14009KT P6SM SCT250
     FM041300 18009KT P6SM FEW250
     FM041900 16009KT P6SM SCT070=

USA.gov is the U.S. government's official web portal to all federal, state and local government web resources and services.